SPAEB EPBY-EPBY

Flight info

Callsign SPAEB
Flight time 0h 26m
Altitude 3500
Route DCT GOLANCZ DCT LOBZENICA
Aircraft C208/L-SDFGR/C

Departure

Time 2026-05-04 11:01
Airport Ignacy Jan Paderewski Bydgoszcz Airport (EPBY)

Arrival

Time 2026-05-04 11:28
Airport Ignacy Jan Paderewski Bydgoszcz Airport (EPBY)
Time Latitude Longitude Altitude Speed Heading
2026-05-04 10:51 53.09608 17.99737 242 ft 0 kts 84°
2026-05-04 10:56 53.09607 17.99717 242 ft 2 kts 84°
2026-05-04 10:56 53.09605 17.99689 242 ft 2 kts 84°
2026-05-04 10:56 53.09604 17.99671 242 ft 0 kts 84°
2026-05-04 10:57 53.09605 17.99677 242 ft 5 kts 60°
2026-05-04 10:57 53.09649 17.99661 243 ft 7 kts 347°
2026-05-04 10:57 53.09690 17.99652 244 ft 0 kts 351°
2026-05-04 10:58 53.09698 17.99649 244 ft 8 kts 349°
2026-05-04 10:58 53.09776 17.99628 247 ft 12 kts 348°
2026-05-04 10:58 53.09835 17.99603 248 ft 2 kts 307°
2026-05-04 10:58 53.09834 17.99562 248 ft 1 kts 260°
2026-05-04 10:59 53.09834 17.99560 248 ft 0 kts 259°
2026-05-04 10:59 53.09827 17.99494 247 ft 35 kts 263°
2026-05-04 10:59 53.09751 17.98659 284 ft 96 kts 260°
2026-05-04 11:00 53.09540 17.97590 611 ft 101 kts 241°
2026-05-04 11:01 53.07615 17.89474 2523 ft 167 kts 249°
2026-05-04 11:02 53.07233 17.87644 2492 ft 162 kts 248°
2026-05-04 11:02 53.06869 17.85919 2493 ft 157 kts 248°
2026-05-04 11:05 53.01661 17.61893 2502 ft 158 kts 245°
2026-05-04 11:06 53.01257 17.60199 2490 ft 158 kts 244°
2026-05-04 11:06 53.00852 17.58517 2525 ft 157 kts 246°
2026-05-04 11:06 53.00458 17.56839 2525 ft 158 kts 245°
2026-05-04 11:06 53.00057 17.55132 2516 ft 157 kts 243°
2026-05-04 11:08 52.97382 17.43100 2520 ft 155 kts 245°
2026-05-04 11:10 52.94916 17.30932 2506 ft 171 kts 278°
2026-05-04 11:12 53.03280 17.27746 2531 ft 178 kts 351°
2026-05-04 11:12 53.04518 17.27526 2509 ft 179 kts 351°
2026-05-04 11:12 53.05758 17.27339 2510 ft 181 kts 352°
2026-05-04 11:12 53.06996 17.27130 2537 ft 179 kts 352°
2026-05-04 11:13 53.08229 17.26938 2508 ft 175 kts 351°
2026-05-04 11:13 53.09423 17.26752 2519 ft 169 kts 353°
2026-05-04 11:13 53.10585 17.26637 2523 ft 167 kts 352°
2026-05-04 11:13 53.11773 17.26484 2533 ft 173 kts 353°
2026-05-04 11:14 53.12182 17.26455 2476 ft 174 kts 355°
2026-05-04 11:14 53.14538 17.26332 2528 ft 170 kts 355°
2026-05-04 11:16 53.23956 17.26144 2519 ft 176 kts 359°
2026-05-04 11:16 53.25178 17.26278 2511 ft 177 kts
2026-05-04 11:16 53.26224 17.27377 2504 ft 183 kts 53°
2026-05-04 11:17 53.26578 17.29303 2508 ft 172 kts 100°
2026-05-04 11:17 53.26213 17.31163 2512 ft 168 kts 116°
2026-05-04 11:19 53.25553 17.44890 2522 ft 178 kts 98°
2026-05-04 11:19 53.25168 17.46774 2532 ft 172 kts 120°
2026-05-04 11:19 53.24662 17.48585 2506 ft 168 kts 121°
2026-05-04 11:19 53.24150 17.50319 2503 ft 164 kts 122°
2026-05-04 11:20 53.23635 17.51989 2499 ft 161 kts 123°
2026-05-04 11:20 53.23133 17.53631 2499 ft 159 kts 122°
2026-05-04 11:20 53.22624 17.55298 2514 ft 162 kts 123°
2026-05-04 11:20 53.22119 17.56958 2503 ft 162 kts 123°
2026-05-04 11:22 53.18495 17.68863 2519 ft 165 kts 119°
2026-05-04 11:22 53.17977 17.70578 2516 ft 164 kts 124°
2026-05-04 11:23 53.17433 17.72298 2501 ft 167 kts 125°
2026-05-04 11:23 53.16899 17.74004 2508 ft 167 kts 122°
2026-05-04 11:24 53.13806 17.84201 2496 ft 168 kts 124°
2026-05-04 11:25 53.13260 17.85945 2479 ft 166 kts 122°
2026-05-04 11:25 53.12743 17.87614 2507 ft 166 kts 124°
2026-05-04 11:25 53.12217 17.89352 2488 ft 165 kts 121°
2026-05-04 11:26 53.11211 17.92678 2505 ft 156 kts 124°
2026-05-04 11:27 53.10766 17.97938 547 ft 89 kts 263°
2026-05-04 11:28 53.10713 17.97059 326 ft 66 kts 262°
2026-05-04 11:28 53.10647 17.96395 244 ft 49 kts 261°
2026-05-04 11:28 53.10620 17.96077 240 ft 1 kts 262°
2026-05-04 11:28 53.10545 17.96116 237 ft 15 kts 112°
2026-05-04 11:29 53.10531 17.96375 243 ft 23 kts 96°
2026-05-04 11:29 53.10510 17.96637 238 ft 22 kts 101°
2026-05-04 11:29 53.10477 17.96847 238 ft 14 kts 107°
2026-05-04 11:29 53.10492 17.96927 239 ft 6 kts 332°
2026-05-04 11:31 53.10494 17.96883 239 ft 0 kts 261°